RH
63 46 36 34 47 19 26 27 21 29 25 20 23 32 35 38 44 52 25 26 28 32 46 53 77 73 72 73 78 77 74 74 73 74 74 73 73 69 73 72 72 73 70 70 70 70 70 69 68
32 34 37 35 22 24 24 20 26 26 24 23 24 25 38 45 30 27 27 28 27 30 35 43 78 74 73 73 74 73 73 74 74 75 75 73 70 72 72 74 72 70 69 70 70 69 69 69 69
38 30 32 17 20 24 25 23 26 25 24 24 28 27 33 44 25 25 24 26 25 29 30 50 78 74 72 72 71 71 70 70 71 71 72 70 71 67 70 72 73 71 72 68 72 69 69 69 69
25 26 25 20 25 21 22 22 23 25 23 22 23 35 36 28 24 23 24 23 24 25 31 66 75 72 70 71 71 70 69 68 69 71 73 71 68 67 66 70 70 69 68 68 70 72 69 70 72
19 18 20 22 23 19 20 21 21 25 27 25 22 36 40 30 24 23 24 22 23 27 36 48 76 73 72 72 71 70 69 68 67 68 71 72 69 67 68 69 69 68 70 71 68 68 70 72 72
21 12 21 24 21 18 19 20 20 23 24 23 26 34 38 29 25 23 21 22 22 25 31 48 72 73 72 72 71 71 70 68 66 65 66 70 70 68 68 66 70 70 65 71 69 68 69 69 70
16 15 19 20 21 23 21 18 20 23 24 25 22 34 32 28 25 22 21 21 21 22 29 38 42 60 72 72 72 71 71 69 67 64 62 65 66 68 67 68 65 67 70 67 68 70 70 69 70
11 12 17 16 18 25 20 20 21 22 28 23 25 34 35 29 25 22 21 21 23 26 30 31 36 40 46 53 74 72 70 71 68 68 66 62 61 62 65 68 64 66 64 67 69 66 70 70 70
11 15 18 16 19 23 18 23 24 20 24 26 24 21 26 26 24 24 24 24 28 30 32 27 28 39 44 75 57 70 72 70 70 69 69 69 61 65 54 67 68 66 64 65 65 67 68 68 71
12 14 16 13 14 18 21 23 24 25 28 30 30 25 26 25 26 25 26 28 29 29 34 28 31 34 35 38 60 55 55 84 87 68 61 52 49 63 44 55 67 67 68 69 68 68 68 66 41
10 14 13 13 14 17 18 20 19 22 27 28 32 30 26 25 25 24 24 24 25 27 29 30 37 35 36 51 45 54 69 66 69 66 54 70 55 49 66 85 52 51 64 46 59 57 50 49 55
10 11 13 16 16 15 18 18 22 24 26 24 24 25 24 25 23 22 22 23 24 27 29 29 35 37 37 46 32 40 40 69 50 48 54 74 67 55 82 66 63 55 67 63 55 51 64 48 51
9 12 14 16 15 18 17 21 24 27 24 22 23 25 26 24 24 22 22 23 25 28 32 36 35 45 44 47 36 34 35 54 71 60 45 51 92 88 57 56 48 57 66 72 76 74 75 64 57
10 13 15 17 17 18 20 22 22 27 24 24 25 25 23 24 23 25 25 26 29 32 36 33 39 46 45 47 49 43 36 69 81 85 70 76 87 85 89 71 53 69 67 61 57 62 64 70 57
10 15 17 18 20 20 44 67 26 24 24 27 26 25 26 27 27 30 28 29 32 31 40 37 38 40 47 48 49 43 42 61 72 79 84 84 90 93 91 91 54 48 54 62 58 66 61 60 62
11 11 30 18 21 22 23 60 28 23 25 27 25 26 28 30 28 31 32 40 56 50 39 38 31 33 41 40 44 53 60 68 63 92 89 85 76 70 90 85 57 54 85 55 51 79 84 73 78
10 26 20 18 17 20 22 28 27 22 24 28 26 26 26 79 82 42 32 28 41 40 46 42 38 36 39 46 42 42 63 52 63 83 73 86 82 74 75 68 64 68 54 70 71 87 76 72 69
18 17 11 13 18 18 18 19 26 25 23 25 25 24 26 46 62 56 28 30 30 42 43 44 39 43 47 44 50 47 65 61 61 64 50 54 58 52 56 59 48 50 54 51 70 83 62 69 55
12 11 12 11 15 18 14 14 23 24 24 25 28 27 29 29 27 28 28 29 28 35 45 46 45 52 49 48 49 46 45 68 63 60 55 50 47 50 61 47 65 52 56 61 59 52 67 50 71
10 11 11 11 15 16 14 14 15 23 24 23 28 29 32 31 28 32 29 27 27 30 40 47 47 54 54 45 46 44 42 47 67 63 54 44 52 52 56 60 61 51 48 72 56 63 50 40 36
9 9 10 12 14 13 12 15 24 22 24 23 24 27 29 27 30 29 30 28 27 31 40 48 53 54 56 52 48 50 50 47 43 41 40 45 47 48 56 63 62 58 59 46 53 59 68 44 38
12 8 8 10 14 68 34 19 47 24 27 27 26 30 28 26 28 28 27 28 27 31 36 47 54 55 54 57 54 59 63 64 86 72 56 49 47 48 48 52 59 76 61 68 57 52 58 80 56
11 8 8 10 12 12 10 11 23 25 25 29 29 29 26 24 25 27 27 31 28 32 37 46 57 61 58 59 71 52 61 45 45 47 84 74 56 55 51 55 57 73 82 67 73 70 74 85 64
8 9 9 10 10 12 11 8 14 23 16 30 33 32 28 28 30 29 29 38 34 33 36 42 60 66 63 63 62 65 62 56 50 64 77 54 63 72 73 67 77 68 61 78 77 67 65 67 77
9 9 13 21 17 16 10 7 16 18 26 27 32 33 30 32 31 33 34 34 37 41 38 43 57 60 60 60 62 66 61 58 61 62 50 63 49 76 73 72 75 84 82 71 79 80 67 72 73
10 8 12 28 14 12 11 12 20 19 24 25 25 28 30 35 29 33 36 38 40 40 42 47 56 58 62 72 69 62 67 58 50 54 65 78 85 87 74 70 69 71 71 70 72 62 66 64 63
10 10 6 6 6 6 6 16 21 25 27 26 29 33 37 35 34 41 48 58 61 64 61 70 68 78 69 74 72 68 66 66 63 68 66 64 69 64 73 69 76 76 77 76 72 55 64 81 65
8 7 8 6 14 16 11 19 36 34 33 32 32 33 36 36 40 42 40 42 44 46 49 50 52 56 57 55 56 58 58 60 60 58 63 63 60 63 66 72 72 79 80 75 79 69 64 78 83
9 9 7 6 10 12 14 54 34 28 28 32 31 32 34 39 38 34 34 33 30 29 30 32 35 39 40 43 49 49 46 43 43 47 52 54 54 59 61 64 64 66 65 70 78 82 76 76 74
8 8 6 8 14 28 25 28 14 13 18 26 29 31 34 38 35 32 29 27 27 28 28 31 31 31 36 41 45 42 45 46 40 48 49 54 59 56 58 59 62 62 60 62 64 62 60 66 75
Wind_Speed
12 14 12 7 8 5 12 8 9 11 14 13 6 10 11 13 12 9 20 19 21 19 18 15 14 12 11 11 12 12 13 12 11 11 10 9 8 7 8 8 9 10 12 12 12 12 14 13 13
13 4 8 9 3 10 13 15 15 15 12 10 8 7 14 17 11 20 17 20 20 19 17 16 13 12 10 10 11 11 12 11 10 10 9 7 8 9 8 9 9 10 11 10 12 12 13 12 12
14 9 8 5 9 12 12 14 12 9 4 7 8 13 10 8 19 14 22 20 21 17 17 17 13 12 11 10 10 10 10 10 9 9 9 7 7 7 8 9 8 9 10 9 10 11 12 11 11
8 8 7 10 13 16 15 10 8 9 9 8 7 14 9 12 16 21 20 18 19 17 21 17 13 12 11 10 9 9 9 9 9 9 10 8 6 7 6 7 8 9 9 9 10 9 10 10 10
11 7 7 12 13 14 14 8 8 10 6 9 12 17 15 11 13 21 18 16 16 17 18 16 12 11 10 9 8 8 8 8 8 8 9 10 7 7 6 8 6 7 7 9 10 9 9 10 10
9 1 6 11 11 13 12 6 9 11 11 12 16 16 13 12 19 18 16 15 13 18 17 14 12 10 9 8 8 7 6 6 6 6 7 7 8 7 5 6 7 5 5 7 8 7 10 8 8
11 8 7 9 14 10 11 8 9 8 12 13 10 16 15 16 17 16 14 15 11 15 16 12 13 10 9 8 6 6 5 5 4 4 4 3 5 6 5 4 5 6 6 4 7 6 7 8 6
5 1 10 8 16 13 7 11 9 11 15 7 9 10 16 18 16 15 13 13 9 10 11 14 13 12 12 14 12 6 4 3 2 2 0 2 3 6 6 5 4 5 4 6 5 5 7 6 7
7 3 11 16 13 10 4 14 7 8 12 11 10 22 20 19 17 15 13 12 9 8 6 10 14 10 3 10 11 10 7 5 3 1 2 7 5 8 7 8 6 3 3 4 5 5 5 6 8
8 12 11 14 15 11 10 10 7 8 11 11 13 18 20 18 15 15 14 13 12 10 9 6 7 10 8 4 9 5 9 6 3 3 2 5 2 4 2 4 9 7 5 8 9 9 8 9 10
4 10 8 17 15 10 12 10 6 2 9 12 16 18 19 18 15 14 13 13 13 11 11 7 2 4 7 6 2 5 6 6 5 4 5 3 3 5 3 3 4 7 10 9 11 10 9 10 5
11 7 8 10 7 12 10 13 14 12 11 18 17 18 17 17 14 13 12 12 12 11 11 10 11 6 6 1 5 4 6 4 2 0 4 4 2 3 4 2 2 3 2 2 7 2 3 6 6
11 9 7 6 10 9 10 14 13 13 14 18 18 16 16 15 13 13 11 12 9 11 10 6 10 6 5 3 1 3 0 4 5 4 2 6 4 4 4 4 4 1 1 2 2 3 2 4 7
6 9 9 8 8 7 11 6 13 11 14 16 15 15 14 16 15 12 9 10 8 7 8 11 7 9 8 5 3 4 3 7 5 2 3 4 2 2 2 3 5 3 4 5 1 3 3 5 7
9 9 9 8 7 6 38 27 13 15 13 15 13 11 10 12 14 14 13 9 11 8 9 10 9 11 8 7 6 7 4 4 7 4 5 3 3 4 4 3 5 3 3 3 4 4 5 5 4
14 14 11 8 6 6 8 15 14 15 13 13 13 11 10 7 12 13 11 9 11 14 6 6 9 11 11 8 7 4 3 9 8 6 5 7 9 9 7 5 6 2 0 4 5 4 1 4 4
11 9 19 11 6 1 7 12 15 13 13 12 12 11 9 21 16 11 9 9 9 12 8 8 7 8 10 7 6 7 6 6 4 8 9 11 10 10 6 8 8 7 7 4 3 5 0 2 4
17 18 6 2 9 5 8 3 12 11 10 13 12 11 10 21 21 17 9 7 12 12 10 8 9 8 6 6 6 5 4 4 4 5 2 12 6 10 6 7 5 5 4 3 3 3 4 4 4
11 7 5 4 6 7 9 3 14 12 12 11 11 9 7 6 4 5 3 6 10 15 10 11 10 9 8 7 7 5 5 2 3 4 6 5 4 5 3 9 7 6 4 7 5 7 6 6 7
5 11 7 4 3 9 6 8 8 13 12 13 13 9 7 8 9 8 8 9 12 12 12 11 10 10 9 7 6 4 6 5 3 3 5 4 5 6 8 7 6 5 5 5 5 5 7 7 5
15 8 7 3 6 9 10 11 11 13 10 9 7 10 9 10 8 9 8 9 10 10 11 11 10 9 9 9 5 5 6 4 5 6 7 9 7 6 7 7 8 4 5 7 5 7 8 7 6
5 7 3 8 11 14 37 3 23 17 11 9 9 8 10 8 7 6 10 9 10 9 12 9 9 9 9 9 8 7 4 4 1 6 4 1 4 6 8 8 8 7 7 6 6 8 8 4 8
4 6 7 8 15 7 10 8 14 13 11 10 9 10 9 9 10 8 7 8 7 8 10 10 7 9 8 9 9 6 8 6 5 5 6 6 7 9 9 9 9 7 8 9 8 8 5 4 7
7 10 11 12 15 12 6 3 4 9 4 13 9 8 6 6 5 5 7 7 5 7 7 8 8 8 8 7 7 6 3 4 5 3 3 8 5 5 7 2 4 8 9 7 6 8 8 8 8
11 17 11 10 3 13 6 3 11 10 11 11 12 11 9 7 8 8 8 9 7 3 8 8 8 7 6 8 6 7 5 3 5 4 6 8 6 5 9 8 6 5 6 8 7 8 8 8 8
15 20 11 10 11 3 9 2 10 12 13 11 12 12 10 11 8 8 8 7 6 5 1 3 9 6 6 5 4 3 5 7 5 3 6 5 6 5 7 7 9 9 8 8 7 7 8 10 9
17 14 19 17 15 7 6 17 13 14 15 13 11 10 10 12 10 10 12 9 9 11 9 6 7 8 4 6 3 2 3 5 6 5 5 4 5 7 8 8 9 9 7 7 8 8 10 8 10
18 8 13 10 12 8 4 4 5 13 15 15 14 14 15 14 13 11 11 11 11 11 9 9 7 6 6 5 4 4 2 4 5 6 5 7 8 8 8 9 8 6 7 9 8 8 8 8 8
15 14 14 17 9 6 11 3 12 13 15 14 15 15 16 16 14 12 12 10 10 10 10 9 7 6 5 5 4 4 5 5 4 5 6 7 8 9 9 9 9 9 10 7 6 7 11 10 10
9 10 17 12 17 9 16 12 6 5 16 15 16 15 16 14 14 13 12 11 10 9 9 8 6 6 5 4 3 4 4 5 6 6 7 7 8 9 9 9 9 9 10 9 10 10 11 12 10
Wind_Direction
204 213 229 254 246 69 73 67 60 65 66 74 50 65 79 47 33 86 132 122 124 131 125 136 120 118 113 105 93 101 100 95 91 93 92 84 72 79 80 103 94 104 99 105 106 106 109 111 108
265 277 246 260 1 66 52 37 51 57 62 82 64 101 77 66 92 119 120 133 138 127 143 134 116 121 117 107 99 92 89 86 85 86 81 81 85 79 81 106 111 102 107 103 111 110 111 109 109
260 275 263 38 38 59 69 73 73 84 101 45 99 37 39 95 117 122 122 142 124 141 130 117 134 129 124 114 106 99 95 91 85 79 71 77 77 82 87 90 101 93 113 107 102 115 116 114 114
262 202 250 59 69 67 65 81 80 115 89 38 117 92 82 101 128 116 138 147 135 141 114 132 137 135 129 123 115 109 102 93 86 76 71 75 72 79 88 83 98 109 119 118 112 119 126 120 116
232 266 101 80 59 58 76 73 56 86 54 46 73 89 104 90 109 133 143 144 127 125 120 138 143 140 138 133 130 123 114 100 85 75 68 68 71 83 77 81 93 99 106 130 124 125 123 125 133
274 283 65 66 60 67 65 5 90 83 89 98 108 91 94 119 129 140 149 136 142 119 136 132 144 146 147 147 144 135 122 110 96 79 70 67 76 83 80 92 100 97 90 101 130 140 132 135 134
262 66 28 97 85 64 62 26 28 75 95 68 115 106 116 137 137 143 150 126 157 119 131 149 156 149 160 167 158 152 144 125 103 94 82 77 94 100 99 95 99 111 114 113 124 131 146 151 151
303 135 92 56 74 56 52 64 36 30 74 101 26 144 142 133 148 143 147 137 145 119 130 149 151 161 185 160 170 165 167 140 143 117 75 263 217 161 155 147 127 118 121 125 129 147 152 169 174
265 42 54 58 71 103 61 82 68 109 97 79 7 134 123 144 148 153 145 142 141 143 181 166 151 154 175 155 150 167 181 189 160 241 210 284 214 200 155 135 134 153 170 165 160 167 176 198 207
276 66 69 60 68 84 64 72 119 123 131 114 90 102 131 151 156 159 161 155 163 168 163 235 144 141 165 191 155 155 184 134 146 227 222 253 39 24 306 137 159 182 196 196 190 191 202 219 225
16 78 87 68 68 84 88 80 62 151 100 136 128 136 148 156 165 164 170 163 167 173 157 195 273 138 168 105 294 171 124 145 162 204 263 269 262 185 220 175 198 183 194 215 196 194 218 221 303
109 77 70 94 128 83 86 82 73 73 86 115 133 139 149 162 169 164 174 160 163 170 160 189 157 171 282 158 190 162 141 143 99 39 278 279 338 47 297 125 203 239 50 298 211 227 305 283 285
104 100 117 126 109 96 86 75 83 90 110 127 129 141 151 158 165 159 172 152 173 165 163 153 152 179 196 233 262 311 17 85 133 201 2 350 37 342 318 24 282 294 170 169 241 233 211 258 261
106 98 123 163 115 114 108 110 108 114 128 134 149 153 162 152 164 144 150 148 163 160 157 154 177 165 199 208 239 282 203 139 129 140 42 21 355 280 277 284 288 197 192 208 316 301 252 242 248
154 149 160 154 159 129 75 322 116 139 142 142 164 177 162 172 152 164 154 156 152 180 173 151 179 173 193 190 190 216 246 84 142 160 164 129 267 264 245 246 282 351 58 304 243 216 217 245 253
221 186 76 152 170 158 169 208 140 149 149 156 158 171 178 180 184 143 166 109 305 120 152 189 188 178 176 189 177 246 130 206 147 165 179 209 226 234 200 219 250 348 349 280 289 182 202 258 216
217 111 266 134 184 344 261 134 154 164 169 166 170 183 201 66 351 264 183 174 172 128 160 194 189 193 160 175 205 228 195 209 182 182 187 193 216 223 181 229 205 204 226 209 307 341 46 306 258
301 164 159 353 147 231 257 158 147 180 192 166 207 196 191 148 183 285 182 191 155 146 167 207 183 183 184 165 216 254 184 233 173 220 247 179 205 188 207 202 230 200 220 261 191 185 289 231 303
261 13 292 107 89 278 263 285 147 180 198 202 219 197 195 219 186 202 244 220 198 152 170 194 198 171 191 195 192 213 250 288 205 206 172 150 234 227 245 265 184 211 308 178 241 255 225 280 195
245 243 216 112 196 237 207 244 155 179 203 205 188 189 218 205 202 194 199 219 213 170 174 194 194 178 206 194 221 227 224 209 187 206 198 234 184 229 226 252 275 192 263 229 235 270 305 278 244
243 275 32 290 193 232 286 222 336 177 196 205 192 184 214 219 220 177 198 191 212 173 175 182 192 187 209 246 211 195 281 261 249 226 221 200 222 239 237 273 276 291 248 266 248 219 241 280 300
85 317 249 265 258 107 259 161 207 165 173 184 186 206 215 208 185 202 167 186 193 181 170 179 192 205 198 205 236 227 266 262 359 276 204 27 290 273 275 259 241 266 275 283 249 231 248 329 298
333 316 289 245 268 300 207 262 146 144 158 171 178 191 198 177 176 176 176 167 192 175 148 172 190 201 228 207 261 225 223 237 238 305 13 293 272 258 258 264 270 248 252 241 246 285 292 257 258
309 269 241 238 248 257 147 26 131 152 80 125 152 187 155 150 156 157 148 143 176 160 176 181 162 199 209 216 217 248 289 292 299 261 310 266 242 200 198 298 285 279 280 304 296 282 259 247 259
222 243 229 301 223 292 91 311 80 90 96 143 164 168 158 141 162 140 162 168 145 148 166 145 168 177 194 195 203 219 232 263 268 274 279 348 301 3 3 356 301 287 276 278 272 275 265 263 260
220 251 270 213 291 93 182 224 102 111 128 136 151 165 174 160 162 146 127 137 160 166 125 138 160 197 192 125 167 255 283 279 285 14 349 310 344 346 350 340 325 326 297 279 280 261 251 261 258
235 224 277 301 283 236 242 105 108 128 146 154 147 149 161 150 155 115 102 89 76 68 84 90 98 89 89 92 136 60 339 328 0 343 321 10 341 340 351 332 339 327 314 296 291 280 308 298 258
267 331 233 225 258 280 297 79 26 166 161 164 156 157 151 148 128 131 128 128 120 116 110 105 100 92 108 129 146 125 24 23 349 335 341 333 328 333 328 322 325 319 317 317 316 293 292 296 281
205 241 254 280 263 277 249 194 223 173 165 167 164 156 153 143 144 140 127 126 118 118 124 120 114 107 97 61 31 11 6 349 331 350 341 339 329 327 316 317 314 313 311 300 311 318 299 290 294
287 262 231 226 232 31 318 144 144 118 153 156 159 157 150 149 149 143 139 139 132 126 119 104 93 101 65 41 358 12 5 334 356 348 340 335 331 321 318 313 311 309 311 310 305 297 301 293 309